Current weather by "City, St" or "zip code"  
 

Current Conditions: Burley Municipal Airport, ID

Fair


36.0 F

Last Updated on Oct 23 2020, 8:53 pm MDT
Humidity: 50%
Wind Speed: S 6.9 mph
Barometer 29.98 in
Dewpoint: 19.0 F
Visibility: 10.00 mi
Precip: --
Heat Index: NA
Wind Chill: 30 F
Current conditions at:

Burley Municipal Airport, ID (KBYI)

Lat: 42.54525 Lon: 113.7686

Local Radar Image active severe weather and emergency alerts image image weather storm and storm spotter reports image weather observation monitoring service image
Local
Radar
Active
Alerts
Storm Reports Obs
Monitoring

Sign-up For Email & Text Message Weather Alert Notification Services



Advertise Here

Observation History for Burley Municipal Airport, ID


Time Wind
(mph)
Vis
(mi)
Weather Precip (in) Temperature (F) Relative
Humidity
Wind
Chill
(F)
Heat
Index
(F)
Pressure
Air Dwpt altimeter
(in)
sea level
(mb)
Rmks
8:53 pm MDT S 6.9 10.00 Fair -- 36.0 19.0 50% 30 NA 29.98 1016.8
7:53 pm MDT SW 3.5 10.00 Fair -- 39.0 19.0 45% NA NA 29.99 1016.9
6:53 pm MDT N 3.5 10.00 Fair -- 44.0 18.0 35% NA NA 29.99 1016.5
5:53 pm MDT N 3.5 10.00 Fair -- 51.0 14.0 23% NA NA 30.01 1016.7
4:53 pm MDT N 0.0 10.00 Fair -- 52.0 14.0 22% NA NA 30.04 1017.2
3:53 pm MDT NE 6.9 10.00 Fair -- 52.0 15.1 23% 50 NA 30.06 1018.1
2:53 pm MDT SE 4.6 10.00 Fair -- 50.0 15.1 25% 48 NA 30.09 1019.3
1:53 pm MDT N 0.0 10.00 Fair -- 47.0 15.1 28% NA NA 30.14 1021.1
12:53 pm MDT NE 5.8 10.00 Fair -- 46.0 18.0 33% 43 NA 30.18 1022.7
11:53 am MDT E 5.8 10.00 Fair -- 42.0 18.0 38% 38 NA 30.21 1024.0
10:53 am MDT NE 4.6 10.00 Fair -- 35.0 17.1 48% 31 NA 30.23 1025.3
9:53 am MDT E 5.8 10.00 Fair -- 32.0 17.1 54% 26 NA 30.25 1026.4
8:53 am MDT E 4.6 10.00 Fair -- 28.0 17.1 63% 23 NA 30.26 1026.8
7:53 am MDT E 5.8 10.00 Fair -- 26.0 16.0 66% 19 NA 30.26 1026.6
6:53 am MDT E 6.9 10.00 Fair -- 28.0 15.1 58% 21 NA 30.27 1026.4
5:53 am MDT N 0.0 10.00 Fair -- 27.0 15.1 61% NA NA 30.26 1025.7
4:53 am MDT E 6.9 10.00 Fair -- 29.0 15.1 56% 22 NA 30.26 1025.8
3:53 am MDT N 0.0 10.00 Fair -- 28.0 18.0 66% NA NA 30.27 1026.2
2:53 am MDT N 0.0 10.00 Fair -- 28.0 18.0 66% NA NA 30.27 1026.4
1:53 am MDT SW 3.5 10.00 Fair -- 29.0 17.1 61% NA NA 30.27 1026.0
12:53 am MDT N 0.0 10.00 Fair -- 30.0 17.1 58% NA NA 30.28 1026.3
11:53 pm MDT SW 4.6 10.00 Fair -- 29.0 16.0 58% 24 NA 30.27 1026.2
10:53 pm MDT SW 4.6 10.00 Fair -- 31.0 17.1 56% 26 NA 30.26 1026.0
9:53 pm MDT SW 4.6 10.00 Fair -- 30.0 18.0 61% 25 NA 30.24 1025.7

Regional Weather Observation


Jerome County Airport, ID (KJER)

Fair
43.0 F

Joslin Field - Magic Valley Regional Airport, ID (KTWF)

Fair
31.0 F

Hailey, Friedman Memorial Airport, ID (KSUN)

Mostly Cloudy
39.0 F

Pocatello, Pocatello Regional Airport, ID (KPIH)

Fair
43.0 F

Mountain Home Air Force Base, ID (KMUO)

Mostly Cloudy
41.0 F

Idaho Falls Regional Airport, ID (KIDA)

Overcast
42.0 F